Location: Tucson
(32.2217°N, 110.9265°W)
Time: 01:35:59
(UTC-07:00)

LightSail 2 - Pass Details

Date: 13 December 2019
Orbit: 704 x 719 km, 24.0° (Epoch: 24 January)

Event Time Altitude Azimuth Distance (km) Brightness Sun altitude
Rises 17:52:48 0° 254° (WSW) 3,105 10.8 -7.2°
Reaches altitude 10° 17:56:38 10° 227° (SW) 2,179 9.0 -7.9°
Maximum altitude 17:58:50 13° 201° (SSW) 1,995 8.1 -8.3°
Drops below altitude 10° 18:01:02 10° 175° (S) 2,172 7.9 -8.8°
Sets 18:04:51 0° 147° (SSE) 3,084 8.3 -9.5°
